TimeEST,TemperatureF,Dew PointF,Humidity,Sea Level PressureIn,VisibilityMPH,Wind Direction,Wind SpeedMPH,Gust SpeedMPH,PrecipitationIn,Events,Conditions,WindDirDegrees,DateUTC
12:53 AM,19.9,-2.0,38,30.22,10.0,WNW,11.5,-,N/A,,Clear,300,2013-11-25 05:53:00
1:53 AM,19.0,-2.0,40,30.24,10.0,WNW,11.5,-,N/A,,Clear,300,2013-11-25 06:53:00
2:53 AM,19.0,-2.0,40,30.26,10.0,West,10.4,-,N/A,,Clear,280,2013-11-25 07:53:00
3:53 AM,19.0,-0.9,42,30.28,10.0,West,12.7,19.6,N/A,,Clear,280,2013-11-25 08:53:00
4:53 AM,19.0,-2.0,40,30.30,10.0,West,13.8,21.9,N/A,,Clear,280,2013-11-25 09:53:00
5:53 AM,18.0,-2.0,41,30.31,10.0,WNW,10.4,-,N/A,,Clear,300,2013-11-25 10:53:00
6:53 AM,17.1,-0.9,45,30.35,10.0,WNW,9.2,-,N/A,,Clear,290,2013-11-25 11:53:00
7:53 AM,19.0,-0.9,42,30.36,10.0,West,9.2,-,N/A,,Clear,270,2013-11-25 12:53:00
8:53 AM,21.9,-2.9,34,30.38,10.0,West,18.4,24.2,N/A,,Clear,280,2013-11-25 13:53:00
9:53 AM,25.0,-5.1,27,30.38,10.0,NW,13.8,-,N/A,,Clear,310,2013-11-25 14:53:00
10:53 AM,27.0,-6.0,24,30.36,10.0,WNW,10.4,20.7,N/A,,Clear,290,2013-11-25 15:53:00
11:53 AM,30.0,-9.0,18,30.35,10.0,WNW,16.1,20.7,N/A,,Clear,290,2013-11-25 16:53:00
12:53 PM,33.1,-5.1,19,30.34,10.0,NW,11.5,19.6,N/A,,Clear,310,2013-11-25 17:53:00
1:53 PM,34.0,-2.0,22,30.33,10.0,WNW,9.2,-,N/A,,Clear,290,2013-11-25 18:53:00
2:53 PM,33.1,-0.0,24,30.32,10.0,West,8.1,-,N/A,,Clear,280,2013-11-25 19:53:00
3:53 PM,33.1,5.0,31,30.35,10.0,WSW,8.1,-,N/A,,Clear,240,2013-11-25 20:53:00
4:53 PM,30.0,5.0,35,30.35,10.0,SSW,3.5,-,N/A,,Clear,200,2013-11-25 21:53:00
5:53 PM,28.9,6.1,38,30.36,10.0,SW,8.1,-,N/A,,Clear,220,2013-11-25 22:53:00
6:53 PM,30.0,8.1,40,30.35,10.0,SSW,6.9,-,N/A,,Clear,210,2013-11-25 23:53:00
7:53 PM,28.0,9.0,45,30.34,10.0,SSE,5.8,-,N/A,,Clear,150,2013-11-26 00:53:00
8:53 PM,28.0,10.0,47,30.34,10.0,South,5.8,-,N/A,,Clear,190,2013-11-26 01:53:00
9:53 PM,30.0,12.9,49,30.32,10.0,SSW,5.8,-,N/A,,Clear,200,2013-11-26 02:53:00
10:53 PM,32.0,16.0,52,30.29,10.0,SSW,6.9,-,N/A,,Clear,210,2013-11-26 03:53:00
11:53 PM,32.0,17.1,54,30.29,10.0,SSW,6.9,-,N/A,,Clear,200,2013-11-26 04:53:00